TimeEDT,TemperatureF,Dew PointF,Humidity,Sea Level PressureIn,VisibilityMPH,Wind Direction,Wind SpeedMPH,Gust SpeedMPH,PrecipitationIn,Events,Conditions,WindDirDegrees,DateUTC
12:53 AM,81.0,72.0,74,29.96,10.0,ESE,12.7,-,N/A,,Partly Cloudy,120,2013-05-01 04:53:00
1:53 AM,80.1,72.0,76,29.94,10.0,SE,15.0,-,N/A,,Clear,130,2013-05-01 05:53:00
2:53 AM,80.1,73.0,79,29.91,10.0,SE,13.8,-,N/A,,Partly Cloudy,130,2013-05-01 06:53:00
3:53 AM,81.0,72.0,74,29.90,10.0,SE,12.7,-,N/A,,Partly Cloudy,140,2013-05-01 07:53:00
4:53 AM,80.1,72.0,76,29.90,10.0,SE,12.7,-,N/A,,Partly Cloudy,130,2013-05-01 08:53:00
5:53 AM,80.1,73.0,79,29.92,10.0,SE,13.8,-,N/A,,Clear,140,2013-05-01 09:53:00
6:53 AM,80.1,73.0,79,29.92,10.0,SE,12.7,-,N/A,,Clear,130,2013-05-01 10:53:00
7:53 AM,81.0,72.0,74,29.94,10.0,SE,10.4,-,N/A,,Partly Cloudy,130,2013-05-01 11:53:00
8:53 AM,81.0,73.0,77,29.96,10.0,SSE,10.4,-,N/A,,Mostly Cloudy,150,2013-05-01 12:53:00
9:53 AM,82.0,73.9,76,29.97,10.0,SE,10.4,-,N/A,,Mostly Cloudy,140,2013-05-01 13:53:00
10:53 AM,82.0,73.0,74,29.99,10.0,SE,9.2,-,N/A,,Mostly Cloudy,140,2013-05-01 14:53:00
11:53 AM,81.0,72.0,74,29.99,10.0,SE,9.2,-,N/A,,Clear,140,2013-05-01 15:53:00
12:53 PM,80.1,72.0,76,29.99,6.0,SSW,3.5,-,0.03,Rain,Rain,210,2013-05-01 16:53:00
1:29 PM,73.4,69.8,88,29.99,3.0,NNW,9.2,19.6,0.08,Rain,Heavy Rain,330,2013-05-01 17:29:00
1:49 PM,73.4,71.6,94,29.98,5.0,Calm,Calm,-,0.12,Rain,Rain,0,2013-05-01 17:49:00
1:53 PM,73.9,71.1,91,29.96,5.0,ESE,8.1,-,0.13,Rain,Rain,120,2013-05-01 17:53:00
2:53 PM,78.8,75.2,89,29.95,10.0,NNW,3.5,-,N/A,,Partly Cloudy,340,2013-05-01 18:53:00
3:13 PM,78.8,71.6,78,29.95,10.0,North,6.9,-,N/A,,Scattered Clouds,350,2013-05-01 19:13:00
3:22 PM,78.8,71.6,78,29.94,10.0,North,10.4,-,N/A,,Mostly Cloudy,350,2013-05-01 19:22:00
3:53 PM,77.0,72.0,84,29.93,10.0,North,9.2,-,N/A,,Mostly Cloudy,350,2013-05-01 19:53:00
4:10 PM,77.0,71.6,83,29.92,10.0,North,5.8,-,N/A,,Scattered Clouds,350,2013-05-01 20:10:00
4:53 PM,79.0,71.1,77,29.92,10.0,North,6.9,-,N/A,,Partly Cloudy,360,2013-05-01 20:53:00
5:53 PM,80.1,72.0,76,29.93,10.0,North,6.9,-,N/A,,Clear,10,2013-05-01 21:53:00
6:53 PM,78.1,71.1,79,29.92,10.0,NNE,10.4,-,N/A,,Mostly Cloudy,20,2013-05-01 22:53:00
7:53 PM,78.1,71.1,79,29.95,10.0,NNE,8.1,-,N/A,,Overcast,30,2013-05-01 23:53:00
8:53 PM,78.1,71.1,79,29.95,10.0,NE,4.6,-,N/A,,Partly Cloudy,50,2013-05-02 00:53:00
9:53 PM,78.1,71.1,79,29.93,10.0,NE,4.6,-,N/A,,Clear,40,2013-05-02 01:53:00
10:53 PM,78.1,72.0,81,29.96,10.0,ENE,5.8,-,N/A,,Mostly Cloudy,70,2013-05-02 02:53:00
11:53 PM,78.1,73.0,84,29.94,10.0,Calm,Calm,-,N/A,,Partly Cloudy,0,2013-05-02 03:53:00